Regional Weather Roundup
Issued by NWS Portland, ME

Home | Current Version | Previous Version | Text Only | Print | Product List | Glossary On
Versions: 1 2 3 4 5 6 7 8 9 10 11 12 13 14 15 16 17 18 19 20 21 22 23 24 25 26 27 28 29 30 31 32 33 34 35 36 37 38 39 40 41 42 43 44 45 46 47 48 49 50
000
ASUS41 KGYX 210310
RWRGYX
WEATHER ROUNDUP FOR MAINE AND NEW HAMPSHIRE
NATIONAL WEATHER SERVICE GRAY ME
1000 PM EST FRI JAN 20 2017

MEZ002-005-006-010-012-015-018-020-021-024-026-027-029-210400-
MAINE

CITY           SKY/WX    TMP DP  RH WIND       PRES   REMARKS
PORTLAND       CLOUDY    35  28  75 CALM      29.94S
SANFORD        CLOUDY    33  30  88 CALM      29.93F
BAR HARBOR     CLOUDY    33  29  85 SW5       29.94F
WISCASSET      CLOUDY    31  28  89 CALM      29.95F
ROCKLAND       CLOUDY    33  28  81 CALM      29.95S
FRYEBURG       CLOUDY    34  27  75 CALM      29.91S
LEWISTONAUBURN CLOUDY    35  28  75 S5        29.92S
AUGUSTA        CLOUDY    31  24  75 S3        29.93S
WATERVILLE     CLOUDY    31  27  85 CALM      29.89F
BANGOR         CLOUDY    32  29  88 S5        29.93F
GREENVILLE       N/A     28  25  88 S5        29.81F
MILLINOCKET    CLOUDY    31  27  85 CALM      29.90F
HOULTON        CLOUDY    28  24  85 SE6       29.88F
PRESQUE ISLE   CLOUDY    28  24  85 S6        29.89F
FRENCHVILLE    CLOUDY    26  21  81 S6        29.84S
CARIBOU        CLOUDY    28  22  78 CALM      29.87S
$$

NHZ002-005-008-009-011-012-014-210400-
NEW HAMPSHIRE

CITY           SKY/WX    TMP DP  RH WIND       PRES   REMARKS
PORTSMOUTH     CLOUDY    35  31  83 CALM      29.92F
ROCHESTER      CLOUDY    35  27  72 CALM      29.92F
NASHUA         CLOUDY    34  31  88 CALM      29.93F
MANCHESTER     CLOUDY    35  30  82 CALM      29.91F
CONCORD        CLOUDY    33  30  88 SE3       29.92F
LACONIA        CLOUDY    33  29  85 CALM      29.91F
PLYMOUTH       CLOUDY    32  30  92 CALM      29.91S
BERLIN         CLOUDY    22  18  85 CALM      29.85F
WHITEFIELD     CLOUDY    27  23  85 CALM      29.86F
JAFFREY        CLOUDY    34  28  79 CALM      29.88F
KEENE          CLOUDY    33  30  88 CALM      29.91S
LEBANON        CLOUDY    34  31  88 CALM      29.88S
MT WASHINGTON  MOCLDY    34   1  25 W22         N/A
$$

VTZ005-007-008-210400-
VERMONT

CITY           SKY/WX    TMP DP  RH WIND       PRES   REMARKS
ST JOHNSBURY     N/A     34  28  79 MISG      29.86S
MONTPELIER     CLOUDY    32  29  88 S3        29.88S
BURLINGTON     CLOUDY    37  30  75 S6        29.85S
$$

MAZ007-012-024-CTZ003-RIZ002-NYZ038-NYZ072-210400-
SOUTHERN NEW ENGLAND AND NY

CITY           SKY/WX    TMP DP  RH WIND       PRES   REMARKS
BOSTON         CLOUDY    38  33  82 S6        29.95S
WORCESTER      CLOUDY    34  27  75 S3        29.90S
NANTUCKET      CLOUDY    40  32  73 E3        29.95F
PROVIDENCE     CLOUDY    39  32  76 S3        29.95S
HARTFORD       CLOUDY    38  34  85 S7        29.93S
ALBANY         CLOUDY    39  33  79 S9        29.88F
NEW YORK CITY  LGT RAIN  43  39  86 SE7       29.92F FOG
$$

ANZ081-ANZ082-ANZ150-NHZ014-MEZ023>029-210400-
COASTAL MARINE OBSERVATIONS

STATION/POSITION TIME  TEMP    WIND        PRES    WAVE
                       AIR SEA DIR/SP/G            HT/PER
                 (UTC) (F)     (DEG/KT/KT) (MB)    (FT/S)
MOUNT DESERT ROC 0300   38                 1014.3F
MATINICUS ROCK   0300   39     250/ 10/ 12 1013.5S
ISLE OF SHOALS   0300   41     210/ 12/ 13 1013.4F
CASHES LEDGE BUO 0150   40 46  200/  6/  8 1014.5    4/10
GEORGES BANK BUO 0150   40 43              1014.5    8/12
$$

.............KEY..............
   WCI - WIND CHILL
   TC  - TEMPERATURE IN CELSIUS
   VSB - VISIBILITY IN MILES
   HX  - HEAT INDEX
   FAIR- INDICATES FEW OR NO CLOUDS BELOW 12,000 FT, WITH NO
         SIGNIFICANT WEATHER AND/OR OBSTRUCTIONS TO VISIBILITY.






USA.gov is the U.S. government's official web portal to all federal, state and local government web resources and services.